Dubuque, IA

3:31 AM CDT on October 23, 2019 (GMT -0500)
Dubuque Regional

Weather History for KDBQ - August, 2019

Change the Weather History Date:

Friday, August 30, 2019

  Actual Average Record
Temperature  
Mean Temperature 62 °F 68 °F  
Max Temperature 73 °F 78 °F 94 °F (1941)
Min Temperature 52 °F 58 °F 40 °F (1915)
Degree Days  
Heating Degree Days 2 1  
Month to date heating degree days 7 15  
Since 1 June heating degree days 36 63  
Since 1 July heating degree days 7 23  
Cooling Degree Days 0 4  
Month to date cooling degree days 120 172  
Year to date cooling degree days 573 572  
Since 1 June cooling degree days 547 535  
Growing Degree Days 12 (Base 50)    
Moisture  
Dew Point 52 °F    
Average Humidity 69    
Maximum Humidity 100    
Minimum Humidity 44    
Precipitation  
Precipitation 0.00 in 0.14 in 2.80 in (1957)
Month to date precipitation 5.02 4.26  
Year to date precipitation 31.13 25.84  
Snow  
Snow 0.00 in 0.00 in - ()
Month to date snowfall 0.0 0.0  
Since 1 June snowfall 0.0 0.0  
Since 1 July snowfall 0.0 0.0  
Snow Depth 0.00 in    
Sea Level Pressure  
Sea Level Pressure 30.15 in    
Wind  
Wind Speed 6 mph ()    
Max Wind Speed 17 mph    
Max Gust Speed 23 mph    
Visibility 10.0 miles    
Events      
T = Trace of Precipitation, MM = Missing Value Source: Averaged Metar Reports

Daily Weather History Graph

Daily Weather History Graph

Search for Another Location

Airport or City:

Astronomy

Aug. 30, 2019 Rise Set
Actual Time 6:25 AM CDT 7:40 PM CDT
Civil Twilight 5:56 AM CDT 8:09 PM CDT
Nautical Twilight 5:21 AM CDT 8:44 PM CDT
Astronomical Twilight 4:44 AM CDT 9:20 PM CDT
Moon 6:25 AM CDT (8/30) 8:17 PM CDT (8/30)
Length of Visible Light 14h 12m
Length of Day
13h 14m
New Moon, 0% of the Moon is Illuminated
Aug 30
New Moon
Sep 5
First Quarter
Sep 13
Full
Sep 21
Last Quarter
Sep 28
New

Hourly Weather History & Observations

Time (CDT) Temp. Dew Point Humidity Pressure Visibility Wind Dir Wind Speed Gust Speed Precip Events Conditions
12:53 AM 60.1 °F 53.1 °F 78% 30.02 in 10.0 mi NNW 10.4 mph - N/A   Clear
1:53 AM 60.1 °F 52.0 °F 75% 30.00 in 10.0 mi NNW 15.0 mph - N/A   Clear
2:53 AM 57.9 °F 52.0 °F 81% 30.00 in 10.0 mi NNE 12.7 mph - N/A   Clear
3:53 AM 57.9 °F 52.0 °F 81% 30.03 in 10.0 mi NNE 6.9 mph - N/A   Clear
4:53 AM 55.9 °F 51.1 °F 84% 30.07 in 10.0 mi North 4.6 mph - N/A   Clear
5:53 AM 53.1 °F 51.1 °F 93% 30.11 in 10.0 mi Calm Calm - N/A   Clear
7:53 AM 54.0 °F 53.1 °F 97% 30.16 in 10.0 mi Calm Calm - N/A   Clear
8:53 AM 61.0 °F 54.0 °F 78% 30.18 in 10.0 mi WNW 3.5 mph - N/A   Clear
9:53 AM 64.0 °F 54.0 °F 70% 30.18 in 10.0 mi NNE 6.9 mph - N/A   Clear
10:53 AM 66.0 °F 53.1 °F 63% 30.18 in 10.0 mi NNE 5.8 mph - N/A   Clear
11:53 AM 68.0 °F 48.9 °F 50% 30.16 in 10.0 mi North 9.2 mph - N/A   Clear
12:53 PM 69.1 °F 48.0 °F 47% 30.16 in 10.0 mi North 12.7 mph - N/A   Clear
1:53 PM 70.0 °F 48.9 °F 47% 30.17 in 10.0 mi NNE 5.8 mph - N/A   Clear
2:53 PM 70.0 °F 50.0 °F 49% 30.17 in 10.0 mi Variable 5.8 mph - N/A   Clear
3:53 PM 73.0 °F 50.0 °F 44% 30.17 in 10.0 mi Calm Calm - N/A   Clear
4:53 PM 72.0 °F 48.9 °F 44% 30.17 in 10.0 mi Calm Calm - N/A   Clear
5:53 PM 72.0 °F 52.0 °F 49% 30.19 in 10.0 mi North 3.5 mph - N/A   Clear
6:53 PM 68.0 °F 55.0 °F 63% 30.19 in 10.0 mi North 4.6 mph - N/A   Clear
7:53 PM 64.0 °F 48.9 °F 58% 30.21 in 10.0 mi North 3.5 mph - N/A   Clear
8:53 PM 61.0 °F 54.0 °F 78% 30.22 in 10.0 mi Calm Calm - N/A   Clear
9:53 PM 57.0 °F 54.0 °F 89% 30.22 in 10.0 mi Calm Calm - N/A   Clear
10:53 PM 57.9 °F 54.0 °F 87% 30.23 in 10.0 mi Calm Calm - N/A   Clear
11:53 PM 59.0 °F 55.0 °F 87% 30.24 in 10.0 mi Calm Calm - N/A   Clear